Regional Weather Roundup
Issued by NWS

Home | Current Version | Previous Version | Text Only | Print | Product List | Glossary Off
Versions: 1 2 3 4 5 6 7 8 9 10 11 12 13 14 15 16 17 18 19 20 21 22 23 24 25 26 27 28 29 30 31 32 33 34 35 36 37 38 39 40 41 42 43 44 45 46 47 48 49 50

000
ASUS43 KLOT 062206
RWRIL

ILLINOIS REGIONAL WEATHER ROUNDUP
NATIONAL WEATHER SERVICE CHICAGO/ROMEOVILLE IL
400 PM CST FRI MAR 06 2015

NOTE: "FAIR" INDICATES FEW OR NO CLOUDS BELOW 12,000 FEET WITH NO
SIGNIFICANT WEATHER AND/OR OBSTRUCTIONS TO VISIBILITY.

* THESE STATIONS ARE NOT UNDER NWS QUALITY CONTROL. THEY ALSO MAY NOT
  REPORT WEATHER SUCH AS PRECIPITATION OR FOG.

ILZ001-002-007-009-015-016-024-062300-
NORTHWEST ILLINOIS

CITY           SKY/WX    TMP DP  RH WIND       PRES   REMARKS
MOLINE         SUNNY     36  22  56 SW9       30.18F WCI  29
STERLING*      SUNNY     34  21  60 W9        30.19F WCI  26
SAVANNA*       SUNNY     34  21  60 SW12      30.16F WCI  25
$$

ILZ003-004-008-010-011-017-018-062300-
NORTH CENTRAL ILLINOIS

CITY           SKY/WX    TMP DP  RH WIND       PRES   REMARKS
ROCKFORD       MOSUNNY   29  18  63 S10       30.18F WCI  20
FREEPORT*      SUNNY     28  20  70 SW16      30.16F WCI  17
ROCHELLE*      SUNNY     29  21  72 SW16      30.19F WCI  17
DE KALB*       SUNNY     25  18  76 S16       30.19F WCI  12
PERU*          SUNNY     33  20  59 SW13G18   30.22F WCI  24
$$

ILZ005-006-012>014-019>023-062300-
NORTHEAST ILLINOIS

CITY           SKY/WX    TMP DP  RH WIND       PRES   REMARKS
CHICAGO-OHARE  MOSUNNY   26  14  60 SW20G30   30.20F WCI  12
CHICAGO-MIDWAY MOSUNNY   26  14  60 SW21G26   30.23F WCI  12
AURORA         SUNNY     28  16  60 S17G26    30.21F WCI  16
LANSING*       SUNNY     25  13  62 SW24      30.26S WCI   9
JOLIET*        SUNNY     25  16  67 S16       30.25F WCI  12
WAUKEGAN       SUNNY     26  15  63 SW25G33   30.15F WCI  11
DUPAGE AIRPORT SUNNY     25  15  66 S20G26    30.20F WCI  11
KANKAKEE*      SUNNY     26  17  71 S15       30.28S WCI  13
WHEELING       SUNNY     27  13  55 S17G29    30.21F WCI  14
MORRIS*        SUNNY     26  20  75 S13       30.23F WCI  15
ROMEOVILLE*    SUNNY     25  16  67 SW16G28   30.23S WCI  13
NORTHERLY ISL    N/A     26  13  57 S14         N/A  WCI  15
$$

LMZ740>746-062300-
SOUTHERN LAKE MICHIGAN

STATION/POSITION SKY/WX   TEMP    WIND        PRES    VSBY  WAVE
                          AIR SEA DIR/SP/G                  HT/PER
                          (F)     (DEG/KT/KT) (MB)    (MI)  (FT/S)
WAUKEGAN HARBOR            27                   N/A
HARRISON CRIB              25     210/ 28/ 34   N/A
BURNHAM HARBOR             26     200/ 19/ 22   N/A
CALUMET HARBOR             25     200/ 18/ 22 1022.4F
MICHIGAN CITY              24     160/ 16/ 20   N/A
$$

ILZ025>027-034>036-040-047-049-050-058-095>099-062300-
WEST-CENTRAL ILLINOIS

CITY           SKY/WX    TMP DP  RH WIND       PRES   REMARKS
QUINCY         SUNNY     44  24  45 W15       30.22S
GALESBURG*     SUNNY     36  26  67 S10       30.20F WCI  28
MACOMB*        SUNNY     40  29  64 SW9       30.23S
JACKSONVILLE*  SUNNY     42  26  52 S9        30.23F
PITTSFIELD*    SUNNY     47  28  48 SW9       30.24S
$$

ILZ028>032-037-038-041>044-048-051>054-059>061-062300-
CENTRAL ILLINOIS

CITY           SKY/WX    TMP DP  RH WIND       PRES   REMARKS
PONTIAC        SUNNY     28  20  70 S13       30.26S WCI  18
BLOOMINGTON    SUNNY     29  20  69 SW20      30.25F WCI  16
DECATUR        SUNNY     31  18  58 SW20      30.28F WCI  19
PEORIA         SUNNY     34  22  61 S13       30.24F WCI  25
LACON*         SUNNY     32  19  58 SW9       30.23S WCI  24
LINCOLN*       SUNNY     33  21  62 S10G17    30.28F WCI  25
SPRINGFIELD    SUNNY     34  21  59 S14       30.26F WCI  25
TAYLORVILLE    SUNNY     32  21  64 S17       30.28F WCI  21
$$

ILZ033-039-045-046-055>057-062-063-062300-
EAST-CENTRAL ILLINOIS

CITY           SKY/WX    TMP DP  RH WIND       PRES   REMARKS
CHAMPAIGN      SUNNY     25  16  68 S20       30.29F WCI  11
DANVILLE*      SUNNY     26  12  55 S18       30.27S WCI  13
RANTOUL*       SUNNY     28  17  66 S17       30.28F WCI  15
MATTOON        SUNNY     26  12  55 S14       30.31R WCI  14
PARIS*         SUNNY     27  15  62 S16       30.33S WCI  14
$$

ILZ079-100>102-062300-
SOUTHWEST ILLINOIS

CITY           SKY/WX    TMP DP  RH WIND       PRES   REMARKS
ALTON          SUNNY     39  18  41 MISG        N/A
BELLEVILLE     SUNNY     37  23  56 VRB7      30.30F WCI  32
CAHOKIA*       SUNNY     47  23  38 S12G21    30.28F
SPARTA*        SUNNY     31  17  56 S16G22    30.37F WCI  20
$$

ILZ064>066-069>071-074>076-080>082-084>086-088>090-092>094-062300-
SOUTH-CENTRAL ILLINOIS

CITY           SKY/WX    TMP DP  RH WIND       PRES   REMARKS
CARBONDALE     SUNNY     30  15  53 S16G22    30.39F WCI  19
CAIRO*         SUNNY     32  16  52 SW12      30.47F WCI  23
EFFINGHAM*     SUNNY     31  11  42 SE10      30.36F WCI  23
MARION         SUNNY     30  14  51 S15       30.40F WCI  19
MT. VERNON     SUNNY     34  19  55 S15G21    30.38S WCI  24
CENTRALIA*     SUNNY     33  17  52 S17G23    30.35F WCI  22
SALEM*         SUNNY     35  17  47 S14       30.35F WCI  25
METROPOLIS*    SUNNY     31  13  47 S7        30.45F WCI  24
$$

ILZ067-068-072-073-078-083-087-091-062300-
SOUTHEAST ILLINOIS

CITY           SKY/WX    TMP DP  RH WIND       PRES   REMARKS
LAWRENCEVILLE  SUNNY     27  13  55 S17       30.40F WCI  14
FLORA*         SUNNY     29  17  59 S14       30.39R WCI  19
FAIRFIELD*     SUNNY     31  16  55 S12       30.37F WCI  21
HARRISBURG*    SUNNY     32  13  47 SW10      30.42F WCI  23
ROBINSON*      SUNNY     27  12  53 S16       30.39F WCI  15
CARMI*         SUNNY     32  19  58 S10       30.42S WCI  24
$$

ABBREVIATIONS USED IN REMARKS
   TC - TEMPERATURE IN CELSIUS
  WCI - WIND CHILL INDEX
   HX - HEAT INDEX
  VSB - VISIBILITY
$$




USA.gov is the U.S. government's official web portal to all federal, state and local government web resources and services.